#timestamp,LO_Frequency,Hit 
1504303215.6,286046989.9,N
1504303235.5,286046985.4,P
1504303255.3,286046987.0,P
1504303275.1,286046999.8,N
1504303295.9,286047002.9,N
1504303315.7,286046999.9,N
1504303335.5,286047002.0,N
1504303355.4,286047005.2,N
1504303375.2,286047007.3,N
1504303395.0,286047004.9,N
1504303395.9,286047004.9,N
1504303415.8,286047004.6,N
1504303435.6,286047007.9,N
1504303455.4,286047008.5,N
1504303475.3,286047010.0,N
1504303495.1,286047009.5,N
1504303496.0,286047009.5,N
1504303515.8,286047008.8,N
1504303535.7,286047008.1,N
1504303555.5,286047007.4,N
1504303575.3,286047007.3,N
1504303595.1,286047002.2,N
1504303615.9,286047000.5,N
1504303635.7,286047001.5,N
1504303655.5,286047000.4,N
1504303675.4,286046998.3,N
1504303695.2,286047001.1,N
1504303715.0,286046999.9,N
1504303715.9,286046999.9,N
1504303735.8,286047006.8,N
1504303755.6,286047008.5,N
1504303775.4,286047007.7,N
1504303795.3,286047013.2,N
1504303815.1,286047017.2,P
1504303835.8,286047008.4,N
1504303855.7,286047006.4,N
1504303875.5,286047005.6,N
1504303895.3,286047005.9,N
1504303915.2,286047006.6,N
1504303935.9,286047013.2,P
1504303955.7,286047008.8,P
1504303975.6,286047006.7,N
1504303995.4,286047008.6,P
1504304015.2,286047000.1,N
1504304035.1,286047003.7,N
1504304036.0,286047003.7,N
1504304055.8,286047001.6,N
1504304075.6,286046999.3,N
1504304095.5,286046999.3,N
1504304115.3,286046999.0,N
1504304135.1,286046999.5,N
1504304155.9,286047004.3,N
1504304175.7,286047005.5,N
1504304195.5,286047005.5,N
1504304215.4,286047003.6,N
1504304235.2,286047003.4,N
1504304255.0,286047003.6,N
1504304255.9,286047003.6,N
1504304275.8,286047002.7,N
1504304295.6,286046999.7,N
1504304315.4,286047002.3,N
1504304335.2,286046998.9,N
1504304355.1,286047000.3,N
1504304356.0,286047000.3,N
1504304375.8,286046998.2,N
1504304395.6,286047005.2,N
1504304415.5,286047005.5,N
1504304435.3,286047006.9,N
1504304455.1,286047006.5,N
1504304475.9,286047007.3,N
1504304495.7,286047009.9,P
1504304515.5,286047008.9,N
1504304535.4,286047008.8,N
1504304555.2,286047004.2,N
1504304575.0,286047003.7,N
1504304575.9,286047003.7,N
1504304595.8,286047004.0,N
1504304615.6,286047004.0,N
1504304635.4,286047003.0,N
1504304655.3,286047004.4,N
1504304675.1,286047002.5,N
1504304695.8,286047002.8,N
1504304715.7,286047000.5,N
1504304735.5,286047001.5,N
1504304755.3,286047000.8,N
1504304775.2,286046998.7,N
1504304795.9,286047003.8,N
1504304815.7,286046999.8,N
1504304835.6,286047007.6,N
1504304855.4,286047012.0,P
1504304875.2,286047004.9,N
1504304895.1,286047004.7,N
1504304896.0,286047004.7,N
1504304915.8,286047003.7,N
1504304935.6,286047001.5,N
1504304955.5,286047004.0,N
1504304975.3,286047003.2,N
1504304995.1,286046998.1,N
1504305015.9,286046995.2,N
1504305035.7,286046988.6,N
1504305055.5,286046988.7,N
1504305075.3,286046989.7,N
1504305095.2,286046984.5,N
1504305115.0,286046979.3,N
1504305115.9,286046979.3,N
1504305135.7,286046980.4,N
1504305155.6,286046982.3,N
1504305175.4,286046979.3,N
1504305195.2,286046980.3,N
1504305215.1,286046978.6,N
1504305216.0,286046978.6,N
1504305235.8,286046978.4,N
1504305255.6,286046976.0,N
1504305275.5,286046976.0,N
1504305295.3,286046969.5,N
1504305315.1,286046971.5,N
1504305335.9,286046969.7,N
1504305355.7,286046972.4,N
1504305375.5,286046970.2,N
1504305395.4,286046971.0,N
1504305415.2,286046977.2,N
1504305435.0,286046977.2,N
1504305435.9,286046977.2,N
1504305455.8,286046976.8,N
1504305475.6,286046978.1,N
1504305495.4,286046975.8,N
1504305515.3,286046971.5,P
1504305535.1,286046992.6,N
1504305536.0,286046992.6,N
1504305555.8,286046995.7,N
1504305575.7,286046994.7,N
1504305595.5,286046992.6,N
1504305615.3,286046988.5,N
1504305635.2,286046989.9,N
1504305655.9,286046992.6,N
1504305675.7,286046992.4,N
1504305695.6,286046991.8,N
1504305715.4,286046990.1,N
1504305735.2,286046994.7,N
1504305755.0,286046991.3,N
1504305756.0,286046991.3,N
1504305775.8,286046987.3,N
1504305795.6,286046993.8,N
1504305815.4,286046996.2,N
1504305835.3,286047001.1,N
1504305855.1,286046999.0,N
1504305875.8,286047002.5,N
1504305895.7,286047002.9,N
1504305915.5,286047006.8,N
1504305935.3,286047006.2,N
1504305955.2,286047006.5,N
1504305975.9,286047009.2,N
1504305995.7,286047006.9,N
1504306015.6,286047009.2,N
1504306035.4,286047009.6,N
1504306055.2,286047009.8,N
1504306075.0,286047011.0,N
1504306076.0,286047011.0,N
1504306095.8,286047015.8,N
1504306115.6,286047016.3,N
1504306135.4,286047016.8,N
1504306155.3,286047016.7,N
1504306175.1,286047016.7,N
1504306195.8,286047020.0,N
1504306215.7,286047018.9,N
1504306235.5,286047023.2,N
1504306255.3,286047020.6,N
1504306275.2,286047022.6,N
1504306295.9,286047023.9,N
1504306315.7,286047023.1,N
1504306335.6,286047021.1,N
1504306355.4,286047019.0,N
1504306375.2,286047019.7,N
1504306395.1,286047019.4,N
1504306396.0,286047019.4,N
1504306415.8,286047025.1,P
1504306435.6,286047011.4,N
1504306455.5,286047012.1,N
1504306475.3,286047006.4,N
1504306495.1,286047008.6,N
1504306515.9,286047009.7,N
1504306535.7,286047009.1,N
1504306555.5,286047009.9,N
1504306575.4,286047008.9,N
1504306595.2,286047008.9,N
1504306615.0,286047008.3,N
1504306615.9,286047008.3,N
1504306635.7,286047009.5,N
1504306655.6,286047011.9,N
1504306675.4,286047009.0,N
1504306695.3,286047006.8,N
1504306715.1,286047008.8,N
1504306716.0,286047008.8,N
1504306735.8,286047009.1,N
1504306755.7,286047006.3,N
1504306775.5,286047012.3,P
1504306795.3,286047000.8,N
